Starlink 33576

operational
NORAD ID: 62775 Int'l Des: 2025-015 Owner: SPXS Country: US Constellation: starlink
LEOCIRCULAR

关于 Starlink 33576

正在加载描述...

实时位置

正在加载3D地球...

即将过境

高度历史

Altitude vs Time

uPlot chart will show altitude changes over time

两行轨道根数

1 62775U 25015T 26035.92667234 .00029916 00000-0 10178-2 0 9991
2 62775 53.1592 114.7333 0001066 75.6847 284.4273 15.30211296 59404
Epoch: Feb 4, 2026 • Age: 18 hours

当前状态

高度 482.3 km
速度 7.62 km/s
星下点 -23.66°S, 71.5°W
发射日期 Jan 21, 2025
运行时间 1 years
类型 internet

技术详情

分类 Payload
质量 575.00 kg
干质量 530.00 kg
总质量 575.00 kg
长度 0.30 m
直径 4.10 m
跨度 29.00 m
形状 Box + pan
制造商 SPXS
平台类型 Starlink V2MO
阶段状态 In Orbit
所有者/国家 SPXS/US

大型星座

Loading constellations...